Regional Weather Roundup
Issued by NWS

Home | Current Version | Previous Version | Text Only | Print | Product List | Glossary On
Versions: 1 2 3 4 5 6 7 8 9 10 11 12 13 14 15 16 17 18 19 20 21 22 23 24 25 26 27 28 29 30 31 32 33 34 35 36 37 38 39 40 41 42 43 44 45 46 47 48 49 50
000
ASUS44 KFWD 272003
RWRTX
NORTH TEXAS HOURLY WEATHER ROUNDUP
NATIONAL WEATHER SERVICE FORT WORTH TX
200 PM CST TUE JAN 27 2015

NOTE: "FAIR" INDICATES FEW OR NO CLOUDS BELOW 12,000 FEET WITH NO
SIGNIFICANT WEATHER AND/OR OBSTRUCTIONS TO VISIBILITY.

TXZ118-119-272100-
DALLAS/FORT WORTH METROPLEX

CITY           SKY/WX    TMP DP  RH WIND       PRES   REMARKS
DFW AIRPORT    MOSUNNY   75  38  26 CALM      30.12F
DALLAS LOVE    MOSUNNY   75  40  28 SW3       30.12F
FTW MEACHAM    SUNNY     76  39  26 SE3       30.12F
DAL-EXECUTIVE  SUNNY     79  37  22 CALM      30.12F
FTW-ALLIANCE   MOSUNNY   77  37  23 SE6       30.13F
FTW-SPINKS     SUNNY     77  37  24 CALM      30.14F
ARLINGTON      SUNNY     77  34  21 SE3       30.13F
GRAND PRAIRIE  SUNNY     75  43  31 NE3       30.14F
ADDISON        SUNNY     75  37  25 S3        30.13F
MESQUITE       SUNNY     73  37  27 CALM      30.13F
LANCASTER      SUNNY     73  40  29 CALM      30.14F
$$

TXZ091>094-102>105-117-120-121-131>134-272100-
NORTH CENTRAL TEXAS

CITY           SKY/WX    TMP DP  RH WIND       PRES   REMARKS
SHRMAN/DENISON SUNNY     76  43  30 SE6       30.13F
BRIDGEPORT     SUNNY     81  44  26 E5        30.15F
DECATUR        SUNNY     76  35  23 SE6       30.13F
DENTON         SUNNY     75  38  26 CALM      30.12F
MCKINNEY       SUNNY     76  38  25 VRB3      30.12F
GREENVILLE     SUNNY     77  34  20 CALM      30.13F
ROCKWALL       SUNNY     75  43  31 CALM      30.12F
TERRELL        SUNNY     78  40  25 W3        30.13F
WAXAHACHIE     SUNNY     77  41  28 CALM      30.14F
CLEBURNE       SUNNY     77  37  24 CALM      30.15F
GRANBURY       SUNNY     77  37  24 CALM      30.15F
$$

TXZ083>090-098>101-113>116-127>130-139>142-154-155-272100-
WESTERN NORTH TEXAS

CITY           SKY/WX    TMP DP  RH WIND       PRES   REMARKS
WICHITA FALLS  MOSUNNY   73  39  29 SW8       30.12F
WF-KICKAPOO    SUNNY    N/A N/A N/A SW6       30.14F
VERNON         SUNNY     77  26  15 S7        30.13F
ABILENE        SUNNY     76  35  22 E3        30.17F
ABILENE-DYESS  SUNNY     75  39  27 VRB3      30.16F
MINERAL WELLS  SUNNY     76  36  23 VRB3      30.13F
STEPHENVILLE   SUNNY     77  35  21 CALM      30.17F
COMANCHE       SUNNY     78  40  25 SE5       30.16F
BROWNWOOD      SUNNY     75  36  23 S3        30.16F
COLEMAN        SUNNY     75  46  35 S5        30.17F
BRADY          SUNNY     75  36  23 CALM      30.17F
$$

TXZ143>147-156>162-174-175-272100-
CENTRAL TEXAS

CITY           SKY/WX    TMP DP  RH WIND       PRES   REMARKS
WACO           SUNNY     75  43  31 S5        30.14F
WACO-TSTC      SUNNY     82  41  23 CALM      30.14F
WACO-MCGREGOR  SUNNY     77  43  29 CALM      30.15F
CORSICANA      SUNNY     77  38  24 CALM      30.13F
MEXIA          SUNNY     77  41  27 N3        30.12F
HEARNE         SUNNY     75  47  37 SW7       30.14F
TEMPLE         SUNNY     77  41  27 NE6       30.13F
KILLEEN        SUNNY     76  35  23 NE6       30.14F
FORT HOOD      SUNNY     77  36  22 MISG      30.13F
HAMILTON       SUNNY     77  34  21 S6        30.16F
LAMPASAS       SUNNY     76  39  26 E6        30.14F
$$

TXZ095>097-106>112-122>126-135>138-148>153-164>167-272100-
EAST TEXAS

CITY           SKY/WX    TMP DP  RH WIND       PRES   REMARKS
PARIS          SUNNY     73  34  23 CALM      30.13F
MOUNT PLEASANT SUNNY     75  33  21 CALM      30.13F
GILMER         SUNNY     73  39  28 CALM      30.12F
MINEOLA        SUNNY     75  34  22 CALM      30.13F
TYLER          SUNNY     78  38  23 N6        30.12F
LONGVIEW       SUNNY     74  40  29 CALM      30.11F
MARSHALL       SUNNY     76  36  23 CALM      30.14F
PALESTINE      SUNNY     78  39  24 CALM      30.12F
JACKSONVILLE   SUNNY     75  38  25 N5        30.14F
HENDERSON      SUNNY     75  39  27 CALM      30.13F
NACOGDOCHES    SUNNY     75  43  31 NW5       30.12F
LUFKIN         SUNNY     79  41  25 CALM      30.11F
$$

SUPPLEMENTAL OBSERVATIONS (CENTRAL)

CITY           SKY/WX    TMP DP  RH WIND       PRES   REMARKS
$$

SUPPLEMENTAL OBSERVATIONS (WEST)

CITY           SKY/WX    TMP DP  RH WIND       PRES   REMARKS
$$

SUPPLEMENTAL OBSERVATIONS (EAST)

CITY           SKY/WX    TMP DP  RH WIND       PRES   REMARKS
$$

SUPPLEMENTAL OBSERVATIONS ARE A COLLECTION OF AUTOMATED INSTRUMENTS
THAT ARE MAINTAINED BY A VARIETY OF FEDERAL AND STATE AGENCIES.
CERTAIN ELEMENTS...SUCH AS HUMIDITY VALUES AND SUSTAINED WIND
SPEEDS...MAY BE APPROXIMATED.



USA.gov is the U.S. government's official web portal to all federal, state and local government web resources and services.